TimeEST,TemperatureF,Dew PointF,Humidity,Sea Level PressureIn,VisibilityMPH,Wind Direction,Wind SpeedMPH,Gust SpeedMPH,PrecipitationIn,Events,Conditions,WindDirDegrees,DateUTC
12:53 AM,15.1,1.0,54,30.55,10.0,WNW,5.8,-,N/A,,Clear,290,2013-01-25 05:53:00
1:53 AM,15.1,1.0,54,30.54,10.0,WNW,9.2,-,N/A,,Clear,300,2013-01-25 06:53:00
2:53 AM,15.1,-0.0,51,30.53,10.0,NW,5.8,-,N/A,,Clear,320,2013-01-25 07:53:00
3:53 AM,14.0,1.0,56,30.52,10.0,Calm,Calm,-,N/A,,Clear,0,2013-01-25 08:53:00
4:53 AM,14.0,3.0,62,30.51,10.0,Calm,Calm,-,N/A,,Clear,0,2013-01-25 09:53:00
5:53 AM,15.1,1.0,54,30.50,10.0,West,3.5,-,N/A,,Clear,270,2013-01-25 10:53:00
6:53 AM,15.1,1.9,56,30.47,10.0,NW,3.5,-,N/A,,Clear,320,2013-01-25 11:53:00
7:53 AM,15.1,1.0,54,30.47,10.0,Calm,Calm,-,N/A,,Scattered Clouds,0,2013-01-25 12:53:00
8:53 AM,16.0,1.0,52,30.44,10.0,SE,3.5,-,N/A,,Overcast,140,2013-01-25 13:53:00
9:53 AM,16.0,1.9,54,30.41,10.0,SE,5.8,-,N/A,,Overcast,140,2013-01-25 14:53:00
10:53 AM,18.0,1.0,48,30.40,10.0,SE,4.6,-,N/A,,Overcast,140,2013-01-25 15:53:00
11:53 AM,18.0,1.9,50,30.34,8.0,SE,8.1,-,N/A,,Overcast,130,2013-01-25 16:53:00
12:29 PM,17.6,6.8,63,30.23,2.5,South,12.7,-,0.00,Snow,Light Snow,170,2013-01-25 17:29:00
12:37 PM,17.6,10.4,73,30.23,0.8,South,10.4,-,0.00,Snow,Light Snow,170,2013-01-25 17:37:00
12:53 PM,17.1,12.0,81,30.27,1.8,SSE,9.2,-,0.00,Snow,Light Snow,150,2013-01-25 17:53:00
12:55 PM,17.6,12.2,79,30.20,3.0,SSE,8.1,-,0.00,Snow,Light Snow,160,2013-01-25 17:55:00
1:10 PM,17.6,10.4,73,30.19,1.8,South,9.2,-,0.00,Snow,Light Snow,170,2013-01-25 18:10:00
1:28 PM,17.6,12.2,79,30.17,0.8,SSE,10.4,-,0.00,Snow,Light Snow,150,2013-01-25 18:28:00
1:38 PM,17.6,12.2,79,30.17,0.5,SE,5.8,-,0.00,Fog-Snow,Snow,140,2013-01-25 18:38:00
1:49 PM,17.6,12.2,79,30.16,1.0,SE,6.9,-,0.00,Snow,Light Snow,130,2013-01-25 18:49:00
1:53 PM,17.1,12.9,84,30.22,1.8,ESE,5.8,-,0.00,Snow,Light Snow,110,2013-01-25 18:53:00
1:56 PM,17.6,12.2,79,30.15,3.0,ESE,6.9,-,0.00,Snow,Light Snow,110,2013-01-25 18:56:00
2:29 PM,17.6,12.2,79,30.14,1.8,ESE,5.8,-,0.00,Snow,Light Snow,120,2013-01-25 19:29:00
2:36 PM,17.6,12.2,79,30.14,0.8,ESE,6.9,-,0.00,Snow,Light Snow,120,2013-01-25 19:36:00
2:53 PM,17.1,12.9,84,30.21,0.5,SSE,9.2,-,0.01,Fog-Snow,Snow,150,2013-01-25 19:53:00
3:53 PM,17.1,14.0,88,30.17,0.8,SSE,9.2,-,0.01,Snow,Light Snow,160,2013-01-25 20:53:00
4:33 PM,17.6,14.0,86,30.09,1.0,SSE,8.1,-,0.01,Snow,Light Snow,160,2013-01-25 21:33:00
4:50 PM,17.6,14.0,86,30.09,2.5,SSE,6.9,-,0.01,Snow,Light Snow,160,2013-01-25 21:50:00
4:53 PM,18.0,14.0,84,30.15,2.5,SSE,5.8,-,0.01,Snow,Light Snow,150,2013-01-25 21:53:00
5:22 PM,17.6,15.8,93,30.07,2.0,SSE,5.8,-,0.00,Snow,Light Snow,160,2013-01-25 22:22:00
5:33 PM,17.6,14.0,86,30.08,2.0,SSE,6.9,-,0.00,Snow,Light Snow,150,2013-01-25 22:33:00
5:53 PM,17.1,14.0,88,30.14,2.0,SSE,5.8,-,0.00,Snow,Light Snow,160,2013-01-25 22:53:00
6:00 PM,17.6,14.0,86,30.07,5.0,Calm,Calm,-,0.00,Snow,Light Snow,0,2013-01-25 23:00:00
6:53 PM,18.0,14.0,84,30.13,9.0,Calm,Calm,-,0.00,,Overcast,0,2013-01-25 23:53:00
7:53 PM,18.0,14.0,84,30.12,9.0,SSE,4.6,-,N/A,,Overcast,160,2013-01-26 00:53:00
8:53 PM,19.0,15.1,85,30.10,8.0,South,3.5,-,N/A,,Overcast,180,2013-01-26 01:53:00
9:53 PM,18.0,15.1,88,30.10,8.0,Calm,Calm,-,N/A,,Overcast,0,2013-01-26 02:53:00
10:53 PM,17.1,15.1,92,30.10,8.0,Calm,Calm,-,N/A,,Overcast,0,2013-01-26 03:53:00
11:53 PM,18.0,15.1,88,30.12,5.0,Calm,Calm,-,N/A,,Overcast,0,2013-01-26 04:53:00